GOES 10 [-]

Last updated on Aug. 14, 2020, 5:30 a.m. UTC

1 24786U 97019A   20226.16080378 -.00000014  00000-0  00000+0 0  9993
2 24786  10.6624  34.8220 0025922 187.6586   1.6760  0.99124960 84909
UTC
Height (km)
Latitude
Longitude
Inclination
Orbital Period
UTC large
Height (km)
Speed (km/s)
/
Latitude / Longitude
Inclination (degrees)
Orbital Period (minutes)
Azimuth
Elevation
Range (km)
Doppler Factor
iOS Compass Heading
iOS Angle

Next 30 passes for location: Hong Kong

Rise time Rise Azimuth (degrees) Set time Set Azimuth (degrees) Duration Max altitude (degrees)

No matching passes for this satellites